Flag for U.S.A. Weather past 2 weeks in Fairbanks, Alaska, U.S.A.

Now
55 °F

Sunny.


Feels Like: 55 °F
Forecast: 31 / 56 °F
Wind: 3 mph from North

Location: Wainwright U. S. Army Airfield

Current Time: Apr 25, 2015 at 3:23:30 PM

Latest Report: Apr 25, 2015 at 2:56 PM


Visibility: 10 mi

Pressure: 29.77 "Hg

Humidity: 19%

Dew point: 13 °F

Location of FairbanksLocation

Historic Weather in Fairbanks — Graph

°F

Fairbanks temperature yesterday

Maximum temperature yesterday: 57 °F (at 3:55 PM)
Minimum temperature yesterday: 32 °F (at 4:56 AM)
Average temperature yesterday: 46 °F

Past Weeks' High & Low Weather Summary

 TemperatureHumidityPressure
High57 °F (Apr 24, 3:55 PM)96% (Apr 12, 4:56 AM)30.04 "Hg (Apr 12, 4:56 AM)
Low19 °F (Apr 14, 6:55 AM)15% (Apr 23, 4:55 PM)28.99 "Hg (Apr 10, 5:55 PM)
Average39 °F50%29.60 "Hg
* Reported Apr 10 1:55 PM — Apr 25 1:56 PM, Fairbanks, Weather by CustomWeather, © 2015

Note: Actual official high and low records may vary slightly from our data, if they occured in-between our weather recording intervals... More about our weather records

Advertising

Fairbanks weather history for previous 24 hours

 ConditionsComfort  
Time TempWeatherWind HumidityBarometerVisibility
1:56 PM
Sat, Apr 25
54 °FSunny.No wind22%29.78 "Hg10 mi
12:56 PM52 °FSunny.No wind24%29.79 "Hg10 mi
11:56 AM49 °FSunny.No wind33%29.80 "Hg10 mi
10:56 AM47 °FSunny.No wind36%29.79 "Hg10 mi
9:56 AM42 °FSunny.No wind43%29.79 "Hg10 mi
8:56 AM38 °FSunny.3 mph53%29.79 "Hg10 mi
7:56 AM34 °FSunny.3 mph67%29.79 "Hg10 mi
6:56 AM29 °FSunny.No wind75%29.78 "Hg10 mi
5:56 AM29 °FClear.5 mph72%29.77 "Hg10 mi
4:56 AM31 °FClear.6 mph67%29.75 "Hg10 mi
3:56 AM33 °FClear.No wind63%29.74 "Hg10 mi
2:56 AM35 °FClear.No wind56%29.73 "Hg10 mi
1:56 AM34 °FClear.5 mph56%29.72 "Hg10 mi
12:56 AM33 °FClear.No wind63%29.70 "Hg10 mi
11:56 PM
Fri, Apr 24
41 °FClear.3 mph43%29.69 "Hg10 mi
10:56 PM47 °FClear.6 mph32%29.68 "Hg10 mi
9:56 PM49 °FSunny.7 mph33%29.67 "Hg10 mi
8:55 PM55 °FPassing clouds.No wind18%29.66 "Hg25 mi
7:55 PM57 °FPassing clouds.No wind15%29.66 "Hg25 mi
6:55 PM57 °FPassing clouds.No wind15%29.66 "Hg25 mi
5:55 PM57 °FPassing clouds.5 mph15%29.67 "Hg25 mi
4:55 PM57 °FPassing clouds.5 mph15%29.67 "Hg25 mi
3:55 PM57 °FPassing clouds.No wind18%29.66 "Hg25 mi
Weather by CustomWeather, © 2015

See weather overviewHow to use our weather pages